Showing default

PRAETORIAN SDA_619, 65582

Orbit data source: Space-Track

PRAETORIAN SDA_619, 65582 is a payload satellite owned by SDA (US) in LEO that was launched on Wed, 10 Sep 2025 UTC via an FALCON 9 launch vehicle from the Air Force Western Test Range (AFWTR). Payload-class satellites include a variety of spacecraft equipped with specific instruments for various scientific and technological missions. These include communications satellites like Starlink; space stations such as the ISS; scientific satellites like the Hubble; Earth observation satellites from companies like Planet Labs, Umbra, and HawkEye 360; GPS; miniature CubeSats for education and research; and military/defense satellites.

Loading next visibility...
Identifier
65582, 2025-203T
Orbit
LEO
Country
Flag of USUS
Related business
Manufacturer
York Space Sys
Mission
Operational Defense Communications
Bus & Motor
S-CLASS, Unknown motor
Mass
~300 kg wet, ~300 kg dry
Launch date (UTC)
2025-09-10 (9 months ago)
Launch vehicle
FALCON 9
Launch site
Air Force Western Test Range (AFWTR)
Object type
Payload
Rocket body
Debris
Shape & HBR
Box + 4 Pan, 14.5 m
Radar Cross Section
1.244 m², Large (>1 m²)

Expand to show TLE details & history
Last TLE update: 21 hours ago

TLE from 21 hours ago
0 PRAETORIAN SDA_619
1 65582U 25203T   26170.97861984  .00000100  00000-0  79600-4 0  9993
2 65582  81.3048   8.2022 0008153 177.5525 182.5673 13.83806323 39714
Epoch: 2026-06-19T23:29Z
TLE epoch observation values (Epoch: 2026-06-19T23:29:12.754Z)
Latitude
0.00001°
Longitude
107.69922°
Altitude
959.252 km
Speed
7.369 km/s
True Right ascension
00h 32m 48s
True Declination
0° 00' 00"
Sunlit
Object was in daylight at epoch
Visualization orbit readout
Latitude
Unknown
Longitude
Unknown
Altitude
Unknown
Speed
Unknown
Apparent Right ascension
Unknown
Apparent Declination
Unknown
Sunlit
N/A
Visualization observer readout
Local Sidereal Time
07:13:01
Azimuth
Unknown
Elevation
Unknown
Doppler factor
Unknown
Orbital elements
Apogee altitude
953.596 km
Perigee altitude
941.651 km
Semi-major axis
7,325.761 km
Eccentricity
0.00082
Inclination
81.3048°
RAAN
8.2022°
Arg. of periapsis
177.5525°
True anomaly
182.56312°
Mean anomaly
182.5673°
Eccentric anomaly
182.56521°
Mean motion
3.4615 °/min
Orbital period
104 mins
BSTAR
0.0000796
Loading maneuver chart data...
Computing Atmospheric mass density...
Loading historical data...
Loading historical data...
Loading historical data...
Loading historical data...
Loading historical data...
Loading historical data...
Loading historical data...

Documentation

Showing up to 5 results
|